Volver al catálogo

STARLINK-37781

ActivoComunicacionesSSO
NORAD 69341·PAYLOAD·🇺🇸 United States

Lanzado Jun 3, 2026 desde Vandenberg Space Force Base

Loading…

Próximos Pases (próximas 24 horas)

TLE

ActualizadoSource: CelesTrak SupGP

Época: Sep 15, 2026, 03:23 UTC

1 69341C 26122N   26258.14145833 -.00028433  00000+0 -88223-3 0  2583
2 69341  97.2824 286.8354 0001366  87.5799  71.1371 15.33467693    12

Sigue STARLINK-37781 en tiempo real con AllMySat

Download on the App Store